Temperature
16 14 13 13 13 15 15 15 14 14 15 15 14 14 14 16 16 16 16 17 18 18 19 19 19 19 18 18 17 16 15 14 13 12 11 11 11 10 10 10 10 9 9 9
14 13 14 14 15 15 15 15 13 14 14 15 14 13 14 15 15 16 16 16 17 18 19 19 19 18 18 17 17 16 15 15 14 13 13 12 11 11 10 10 9 9 9 8
14 15 16 16 16 16 15 15 14 14 13 13 14 14 15 15 15 15 16 16 17 17 17 18 18 17 17 17 16 16 15 15 14 13 12 11 11 10 10 10 10 9 9 8
13 14 16 16 16 16 14 15 15 15 13 12 13 13 14 15 15 14 15 16 16 17 17 17 17 17 16 16 15 15 14 14 13 13 12 11 11 11 11 10 10 9 9 8
15 16 17 16 16 16 15 15 14 14 13 12 12 12 12 14 15 14 14 15 16 16 16 16 16 16 16 15 15 14 14 13 13 12 11 11 11 10 10 9 9 9 8 8
14 16 17 16 16 16 15 14 13 11 11 12 14 12 13 13 14 14 14 15 15 15 15 15 15 15 15 14 14 14 13 13 12 12 11 11 10 10 9 9 9 8 8 8
15 15 16 16 16 15 14 13 12 13 12 13 13 13 13 14 14 13 13 14 15 15 15 15 14 14 14 14 14 13 13 12 12 11 11 11 10 10 9 9 8 8 8 7
15 15 15 15 15 15 14 13 13 14 12 12 12 13 13 13 14 15 15 15 14 14 14 14 13 13 13 13 13 13 13 12 12 11 11 10 10 10 9 9 8 8 8 8
14 15 15 15 15 15 15 13 12 11 12 11 11 12 13 13 13 13 13 14 14 14 14 13 13 13 13 13 12 12 12 12 11 11 10 10 10 9 9 9 8 8 8 7
15 15 15 14 15 14 14 12 11 11 12 11 11 12 13 14 13 12 12 13 14 14 13 13 13 12 12 12 12 11 11 11 11 10 10 9 9 9 8 8 8 7 7 7
16 14 14 14 13 13 13 13 12 10 10 10 11 12 13 14 13 12 12 14 14 13 13 13 12 12 12 11 11 11 10 10 10 10 9 9 8 8 8 7 7 7 7 7
14 11 12 12 13 13 12 12 11 11 11 9 9 11 13 13 12 13 13 13 13 13 12 12 12 11 11 10 10 10 9 9 9 9 8 8 8 7 7 7 7 7 6 6
13 12 12 13 13 13 13 13 12 11 10 9 9 11 12 11 12 12 12 12 12 12 12 11 11 10 10 10 9 9 9 8 8 8 7 7 7 7 6 6 6 6 6 5
12 11 11 13 13 13 13 13 12 11 9 9 9 11 12 12 11 11 11 12 11 11 11 10 10 10 9 9 9 8 8 7 7 7 7 6 6 6 6 6 5 5 5 4
11 11 11 11 11 11 11 11 11 10 10 10 10 11 12 12 11 11 11 11 11 10 10 9 9 9 8 8 8 7 7 7 6 6 6 6 6 5 5 5 4 4 4 3
10 10 11 11 11 10 10 11 10 10 10 10 10 11 11 10 10 10 10 10 10 9 9 9 8 8 7 7 7 6 6 6 5 5 5 5 5 5 4 4 3 3 3 2
8 9 9 8 9 9 9 10 10 10 10 10 10 10 10 9 10 10 10 9 9 8 8 8 7 7 7 6 6 5 5 5 5 5 4 4 4 4 3 3 2 2 1 1
8 8 7 7 9 8 10 11 11 10 10 10 9 9 9 9 10 10 9 8 8 7 7 7 6 6 6 5 5 5 4 4 4 4 4 3 3 2 2 1 1 1 0 0
8 8 6 6 7 7 9 10 11 11 10 9 8 8 8 8 8 8 8 7 7 7 6 6 6 5 5 5 4 4 4 3 3 3 3 2 1 1 1 0 0 -0 -0 -1
6 7 6 5 7 7 9 10 11 10 8 8 7 7 7 7 4 5 7 6 6 6 5 5 5 4 4 4 3 3 3 3 2 2 1 1 0 0 -0 -0 -1 -1 -1 -1
6 6 5 5 5 7 8 9 10 9 8 7 7 7 7 6 5 6 6 5 5 5 5 4 4 4 3 3 3 2 2 2 1 1 0 0 -0 -1 -1 -1 -1 -2 -2 -2
6 5 4 4 5 6 9 9 8 7 7 7 7 6 6 6 5 5 5 5 4 4 4 4 3 3 3 2 2 1 1 1 0 -0 -0 -1 -1 -1 -2 -2 -2 -2 -3 -3
6 7 6 6 7 8 9 8 7 7 7 6 6 5 5 5 4 4 4 4 4 3 3 3 2 2 2 2 1 1 0 0 -1 -1 -1 -2 -2 -2 -2 -3 -3 -3 -3 -3
7 6 5 5 6 7 7 7 6 6 6 5 5 5 4 4 4 4 3 3 3 3 2 2 2 1 1 1 1 0 -0 -1 -2 -2 -2 -2 -3 -3 -3 -3 -3 -4 -4 -4
6 6 5 5 6 6 6 6 5 5 5 5 5 4 4 4 3 3 3 3 2 2 2 1 1 1 0 0 -0 -1 -1 -2 -3 -3 -3 -3 -3 -3 -4 -4 -4 -4 -4 -4
4 5 5 5 6 5 6 6 5 5 5 5 4 4 4 3 3 2 2 2 2 1 1 1 0 -0 -0 -1 -1 -1 -2 -3 -3 -4 -4 -4 -4 -4 -4 -5 -5 -4 -5 -4
Wind_Speed
1 2 5 8 9 8 5 6 9 9 6 5 8 12 13 8 4 6 7 8 9 8 8 5 2 7 8 10 12 15 16 14 12 9 10 11 13 10 8 14 20 23 24 24
3 6 11 8 6 6 6 7 8 8 5 4 7 9 8 3 3 3 4 7 8 10 11 9 4 4 7 10 12 13 15 14 14 14 12 8 7 7 8 9 15 21 23 23
8 8 4 5 5 5 6 6 7 6 8 6 6 8 5 4 4 5 5 5 6 7 9 8 5 1 3 7 10 12 14 14 14 12 7 4 3 2 5 8 9 13 20 22
8 7 5 5 5 4 6 5 4 4 5 6 4 3 6 2 2 3 4 5 6 6 6 6 5 3 2 5 6 8 9 11 11 10 9 11 11 13 12 10 9 10 17 20
6 3 4 5 5 5 6 2 3 2 1 4 2 2 8 3 4 4 3 2 3 4 5 5 5 4 3 2 2 4 5 7 8 10 12 12 14 14 9 7 9 11 11 16
8 4 4 5 1 2 1 5 5 5 4 3 3 4 6 5 8 7 5 3 1 3 5 6 6 6 6 5 3 1 3 5 7 9 11 13 15 14 11 10 11 10 10 11
5 2 2 3 1 1 5 5 5 6 4 5 4 3 8 7 6 8 8 5 2 1 3 4 6 6 6 6 4 2 2 4 5 8 10 12 15 14 15 14 12 12 10 11
3 5 4 4 5 4 3 6 4 3 4 6 6 5 7 6 2 5 5 4 2 1 1 1 2 3 3 5 4 3 3 4 4 6 9 10 11 10 11 13 12 13 12 13
6 5 0 2 2 5 3 4 6 5 1 4 7 8 7 5 6 4 3 3 3 3 3 2 2 2 3 4 4 3 3 4 5 6 7 8 9 10 12 12 11 11 12 11
7 4 2 1 2 2 3 6 5 4 2 5 7 7 4 3 3 3 4 5 6 5 3 3 3 3 3 3 4 4 3 4 5 5 6 6 7 9 10 9 11 12 13 12
4 4 2 1 6 7 5 4 4 4 4 4 5 7 5 4 5 6 6 6 6 5 4 3 3 3 3 4 4 4 4 4 5 6 6 6 7 7 8 8 10 11 11 11
5 5 4 7 5 4 8 8 8 5 5 5 4 8 5 4 4 4 4 3 4 4 3 3 3 4 4 5 5 5 5 5 6 6 6 7 7 7 8 9 10 10 11 11
6 5 1 6 2 1 2 4 5 4 3 5 5 8 3 0 2 1 1 2 3 3 3 3 4 4 5 6 6 6 6 6 6 6 6 7 8 8 9 10 10 10 10 11
6 5 7 8 6 3 4 5 5 6 5 7 11 13 10 9 7 3 2 2 2 3 3 3 4 5 6 7 7 7 8 7 7 6 7 8 9 10 10 10 10 11 11 11
6 5 7 7 6 5 8 11 9 11 10 11 11 12 15 10 4 1 1 3 3 3 4 5 5 6 7 8 8 7 8 7 7 7 8 9 10 10 10 11 11 11 11 12
4 5 3 4 6 7 11 15 14 12 10 11 12 14 6 1 3 2 2 3 3 5 6 7 8 8 8 8 8 8 8 8 7 8 10 10 11 11 11 11 11 11 12 12
6 7 4 4 4 7 10 10 7 6 7 8 8 5 1 2 2 1 1 2 3 6 8 8 8 9 9 8 7 8 8 8 8 9 10 11 11 12 12 12 12 12 12 12
9 8 5 2 1 8 9 3 4 4 2 0 2 2 3 1 3 3 1 1 6 8 8 8 8 8 8 7 7 7 8 9 9 10 11 11 11 13 13 12 13 13 12 12
6 8 5 4 4 9 10 6 3 3 1 3 4 3 3 4 4 4 3 3 6 8 9 8 8 7 7 8 8 8 10 10 10 11 12 12 12 13 13 14 14 13 12 12
3 5 6 5 5 8 8 4 1 3 2 1 3 3 4 4 5 5 6 8 9 10 9 8 7 6 7 8 8 9 11 11 12 13 13 13 12 13 14 15 14 13 12 13
4 4 6 6 6 9 8 5 1 3 4 0 2 2 2 2 6 8 9 9 9 9 9 8 7 7 8 9 9 10 11 13 13 13 13 13 13 13 14 14 13 13 13 13
9 7 7 7 6 9 4 3 4 3 1 1 2 3 5 7 9 9 8 9 9 9 8 7 7 9 9 9 9 12 14 14 14 13 14 14 14 13 13 14 14 13 13 14
8 9 8 10 8 2 4 6 4 3 2 3 4 6 6 7 7 8 8 8 9 9 8 7 8 10 10 10 10 14 16 15 15 14 14 14 14 13 12 13 15 14 12 12
4 3 5 5 4 3 5 5 3 3 4 5 5 6 5 6 7 8 8 8 8 8 9 8 9 12 14 12 11 12 15 15 14 16 15 14 14 14 13 11 11 11 12 12
5 3 3 4 2 2 3 2 2 2 2 3 3 3 4 6 7 7 8 9 8 9 8 8 10 13 16 15 14 13 13 14 15 15 14 14 13 14 13 12 11 13 12 14
4 6 6 6 4 3 3 3 1 2 3 4 4 6 6 5 7 8 8 8 9 10 10 11 12 13 16 16 16 14 13 13 14 14 13 12 12 12 12 13 14 18 19 24
Wind_Direction
36 84 228 223 208 217 238 252 276 272 287 308 276 284 297 315 28 27 14 11 7 351 331 337 191 175 180 188 193 197 200 199 188 188 196 202 213 210 210 213 212 210 210 208
13 258 242 230 219 219 240 276 285 295 328 310 298 304 313 3 68 52 30 21 14 9 10 14 46 140 182 195 200 200 202 199 198 204 204 203 207 210 211 214 216 214 213 212
223 245 255 200 219 253 271 249 262 286 326 352 357 346 349 359 30 25 16 15 18 22 18 13 21 86 190 207 207 207 206 203 203 200 188 183 183 240 216 218 222 217 216 217
239 252 216 217 236 211 273 254 246 303 359 314 22 312 288 285 351 2 357 10 18 18 23 20 15 3 273 237 218 215 209 206 203 192 192 197 210 224 226 223 223 216 216 219
264 234 201 228 237 194 240 308 283 262 161 317 311 196 281 254 222 237 257 316 7 20 30 23 5 345 337 325 249 220 210 210 202 199 204 209 224 234 237 227 227 226 222 222
247 252 221 215 197 191 358 20 38 50 69 322 251 179 279 225 211 203 218 230 311 24 30 20 10 9 5 5 7 341 212 224 211 207 212 217 229 236 240 237 235 236 233 229
304 263 231 143 111 61 67 55 11 353 3 269 292 236 253 251 221 182 184 191 208 4 33 19 19 14 8 5 357 348 270 254 232 218 222 226 233 236 240 243 242 243 243 239
285 287 229 196 186 188 188 138 152 243 266 293 319 259 265 302 118 132 147 163 180 197 327 345 350 357 351 356 356 340 301 277 259 236 237 237 238 240 247 248 246 246 248 247
199 260 337 175 205 165 158 167 170 144 285 281 288 293 314 43 73 97 126 158 199 226 244 264 299 318 330 342 341 324 303 290 280 260 254 253 247 243 250 254 252 254 254 254
166 233 268 44 74 37 147 144 103 135 224 276 293 290 250 200 184 165 188 210 222 227 242 268 290 303 317 323 326 333 311 290 287 279 265 261 258 253 255 260 261 260 260 257
143 182 276 306 205 204 159 175 158 149 167 183 270 275 236 213 187 188 217 225 223 223 236 266 288 307 329 341 342 336 325 311 300 290 281 278 277 274 270 266 266 266 267 264
135 133 240 259 250 205 183 186 155 168 228 197 211 268 269 187 183 187 212 237 241 245 260 282 309 340 346 339 331 324 313 303 293 290 288 284 284 286 282 276 273 271 271 269
135 122 359 334 341 64 195 188 175 155 157 192 206 260 289 210 311 317 266 277 280 289 308 328 338 339 329 318 312 306 299 292 291 293 293 294 293 290 285 282 280 278 275 275
118 149 184 212 214 197 256 250 216 182 206 232 229 252 278 291 294 304 322 307 305 313 326 340 329 314 305 299 296 297 295 293 295 298 298 296 293 290 288 287 285 283 280 279
123 192 225 245 253 247 249 256 243 223 217 232 250 256 271 279 260 226 320 345 356 348 337 322 306 295 294 296 296 298 297 300 303 305 302 296 294 292 291 289 287 285 281 279
128 178 209 270 270 274 274 265 254 246 234 236 258 271 286 103 109 75 24 13 354 322 309 302 298 295 294 293 295 299 299 301 305 303 298 297 297 297 293 291 289 286 283 280
162 155 161 264 307 337 278 255 232 226 225 214 234 250 67 61 40 353 344 3 321 301 292 292 292 287 287 289 293 298 297 301 302 298 297 298 297 296 293 291 290 287 286 283
156 152 161 213 31 249 245 237 223 235 279 355 115 72 58 356 293 286 221 291 298 293 292 291 289 289 290 293 299 299 301 303 301 299 297 296 295 294 293 292 290 288 286 284
167 152 151 161 223 276 290 280 211 172 118 58 87 51 355 312 329 307 266 303 295 292 291 288 286 288 295 301 303 306 307 305 303 300 297 295 294 294 295 294 292 291 291 290
101 141 148 159 194 242 251 262 286 102 198 47 84 41 350 12 351 289 297 309 303 301 299 297 298 302 307 308 311 310 307 306 302 299 296 295 293 292 294 294 293 292 290 290
125 147 176 178 212 258 256 270 127 192 239 128 58 8 332 280 247 267 290 293 289 292 292 296 302 303 299 303 309 305 304 301 298 297 296 295 292 291 292 292 291 292 293 292
173 169 182 163 197 249 266 110 129 180 157 179 259 267 269 264 271 282 289 290 296 298 299 304 304 301 300 301 303 303 303 300 299 298 297 295 294 294 297 294 294 293 293 294
196 189 182 189 206 197 85 114 126 146 193 240 254 265 267 274 281 290 291 296 298 298 298 299 298 301 301 298 294 298 301 302 302 300 299 298 297 295 293 293 295 297 295 294
251 146 158 220 251 144 123 130 142 187 213 237 249 262 269 280 288 295 296 298 300 299 298 299 303 307 308 307 297 291 297 300 301 301 302 300 300 300 297 292 292 294 294 294
229 149 164 236 255 124 161 170 205 235 251 272 294 287 292 296 299 297 300 301 301 302 300 300 300 302 304 306 304 300 299 301 302 301 300 301 299 299 300 296 293 292 284 285
207 186 190 227 213 189 238 250 284 316 314 313 320 319 318 311 301 303 302 300 301 303 303 303 300 299 303 305 305 305 303 302 303 305 304 303 302 302 300 301 301 294 291 295
Height
1534 1538 1540 1536 1535 1534 1534 1536 1537 1529 1520 1519 1517 1514 1505 1501 1499 1498 1496 1492 1490 1487 1486 1484 1485 1486 1488 1491 1493 1495 1497 1499 1501 1502 1504 1505 1505 1506 1508 1509 1510 1512 1514 1515
1538 1538 1530 1528 1529 1531 1532 1534 1533 1526 1519 1519 1517 1513 1505 1501 1500 1500 1498 1495 1492 1490 1488 1486 1486 1486 1488 1489 1491 1492 1493 1495 1497 1498 1500 1501 1502 1502 1503 1505 1505 1506 1507 1508
1537 1530 1524 1525 1527 1529 1529 1531 1530 1528 1523 1519 1519 1515 1509 1504 1502 1501 1499 1497 1495 1493 1491 1489 1488 1488 1488 1489 1489 1490 1491 1492 1494 1495 1497 1497 1498 1497 1497 1497 1498 1499 1500 1501
1531 1524 1523 1524 1525 1525 1531 1523 1524 1524 1529 1531 1527 1532 1516 1507 1505 1503 1501 1499 1497 1495 1493 1492 1490 1490 1489 1488 1488 1488 1489 1490 1491 1492 1492 1492 1492 1490 1490 1492 1493 1493 1494 1493
1528 1522 1521 1523 1522 1522 1524 1521 1523 1523 1526 1532 1529 1532 1521 1509 1507 1504 1502 1500 1498 1497 1495 1494 1492 1491 1490 1489 1488 1487 1487 1487 1488 1489 1489 1488 1487 1486 1487 1487 1486 1486 1486 1485
1523 1519 1519 1519 1519 1520 1520 1523 1525 1530 1534 1535 1524 1530 1522 1511 1503 1501 1500 1500 1499 1498 1497 1495 1494 1492 1490 1489 1488 1487 1486 1486 1486 1486 1485 1485 1483 1483 1482 1480 1479 1478 1478 1477
1523 1519 1517 1517 1520 1521 1523 1532 1540 1536 1541 1534 1523 1523 1517 1500 1495 1496 1498 1499 1500 1499 1498 1496 1495 1493 1491 1490 1488 1487 1486 1485 1484 1484 1483 1481 1480 1479 1477 1475 1473 1472 1470 1468
1528 1527 1518 1517 1518 1522 1523 1530 1542 1544 1546 1539 1525 1522 1509 1498 1494 1495 1498 1500 1500 1499 1498 1497 1495 1494 1492 1490 1489 1487 1486 1485 1483 1482 1480 1479 1477 1475 1472 1470 1468 1465 1463 1460
1527 1524 1516 1516 1516 1519 1522 1528 1530 1540 1540 1543 1534 1520 1506 1498 1498 1498 1500 1500 1500 1499 1498 1497 1496 1494 1492 1491 1489 1487 1486 1484 1482 1480 1478 1476 1473 1471 1468 1465 1462 1459 1456 1453
1516 1522 1517 1517 1518 1518 1520 1525 1535 1539 1543 1546 1536 1526 1513 1502 1501 1501 1500 1499 1499 1498 1497 1497 1495 1494 1492 1491 1489 1487 1485 1482 1480 1477 1475 1472 1469 1466 1463 1459 1456 1452 1449 1446
1512 1521 1521 1520 1520 1520 1524 1525 1528 1537 1541 1546 1544 1528 1503 1498 1498 1499 1498 1498 1497 1497 1497 1496 1495 1493 1492 1490 1488 1485 1483 1480 1477 1474 1471 1468 1464 1461 1457 1454 1450 1446 1442 1438
1513 1523 1527 1521 1515 1515 1517 1520 1526 1534 1535 1539 1542 1526 1496 1496 1496 1496 1496 1496 1496 1496 1496 1495 1493 1492 1490 1488 1485 1482 1479 1476 1473 1469 1466 1462 1459 1455 1451 1447 1443 1438 1434 1430
1512 1522 1529 1524 1522 1517 1516 1516 1519 1524 1530 1537 1539 1520 1496 1496 1494 1495 1495 1495 1495 1495 1494 1493 1492 1490 1488 1485 1482 1479 1475 1472 1468 1464 1460 1456 1452 1448 1443 1439 1434 1430 1425 1420
1508 1518 1525 1525 1520 1516 1516 1515 1515 1521 1530 1530 1522 1508 1498 1495 1495 1495 1495 1494 1494 1493 1492 1491 1489 1487 1485 1481 1478 1474 1470 1466 1462 1458 1454 1450 1445 1441 1435 1431 1426 1421 1416 1411
1508 1517 1517 1516 1514 1514 1514 1513 1512 1515 1515 1516 1507 1503 1495 1492 1493 1493 1493 1493 1493 1492 1490 1489 1486 1483 1480 1476 1472 1468 1465 1461 1456 1452 1447 1443 1438 1433 1427 1422 1417 1412 1407 1403
1509 1514 1515 1514 1511 1512 1511 1504 1504 1504 1505 1504 1501 1497 1491 1491 1492 1492 1492 1492 1491 1490 1488 1485 1482 1479 1475 1471 1466 1462 1458 1455 1450 1445 1440 1435 1430 1424 1419 1414 1408 1403 1398 1393
1510 1514 1518 1522 1516 1514 1511 1497 1496 1497 1495 1496 1497 1495 1492 1492 1492 1492 1491 1490 1489 1487 1485 1481 1477 1474 1469 1465 1461 1457 1452 1448 1443 1438 1433 1428 1422 1416 1410 1405 1399 1394 1388 1383
1507 1512 1519 1523 1518 1521 1499 1490 1490 1491 1491 1491 1492 1493 1492 1493 1492 1491 1490 1488 1486 1484 1480 1476 1472 1468 1464 1460 1456 1451 1446 1442 1436 1431 1425 1419 1413 1407 1402 1396 1390 1385 1379 1373
1500 1507 1518 1524 1522 1512 1497 1488 1486 1488 1491 1492 1492 1493 1492 1491 1489 1488 1487 1485 1483 1479 1475 1472 1468 1463 1459 1455 1450 1445 1440 1435 1429 1423 1417 1412 1406 1399 1393 1387 1381 1376 1370 1363
1500 1502 1513 1521 1519 1514 1494 1485 1484 1487 1493 1493 1492 1492 1491 1489 1492 1488 1484 1481 1478 1474 1471 1467 1463 1459 1454 1450 1444 1439 1433 1427 1421 1415 1410 1404 1398 1392 1385 1379 1373 1367 1361 1354
1503 1506 1511 1515 1515 1503 1487 1483 1484 1493 1494 1492 1490 1490 1489 1488 1488 1484 1480 1477 1473 1470 1466 1462 1458 1453 1449 1444 1438 1432 1426 1420 1414 1408 1402 1396 1390 1384 1377 1370 1364 1358 1351 1345
1495 1503 1508 1511 1513 1501 1482 1482 1487 1490 1489 1489 1488 1487 1486 1484 1481 1478 1475 1471 1468 1464 1460 1456 1452 1448 1443 1438 1432 1425 1419 1413 1406 1400 1393 1387 1381 1375 1369 1362 1355 1349 1343 1336
1486 1485 1489 1491 1488 1483 1481 1483 1485 1486 1487 1486 1485 1483 1481 1479 1476 1473 1470 1466 1463 1459 1455 1451 1446 1441 1436 1432 1426 1419 1412 1405 1398 1391 1384 1378 1371 1366 1360 1353 1346 1340 1334 1328
1479 1478 1482 1484 1481 1481 1482 1482 1484 1484 1483 1482 1481 1479 1476 1474 1471 1468 1465 1462 1458 1454 1450 1445 1440 1434 1428 1423 1418 1412 1405 1398 1390 1383 1375 1369 1362 1356 1350 1345 1339 1332 1326 1321
1476 1477 1480 1480 1479 1479 1480 1480 1480 1480 1479 1477 1476 1474 1472 1470 1467 1464 1461 1457 1453 1449 1444 1440 1434 1428 1421 1415 1409 1404 1398 1390 1382 1374 1367 1361 1354 1348 1341 1336 1331 1325 1319 1316
1473 1474 1477 1477 1475 1477 1477 1477 1476 1475 1474 1473 1472 1470 1468 1466 1463 1460 1456 1453 1448 1443 1438 1433 1427 1421 1414 1408 1401 1395 1389 1382 1374 1366 1359 1353 1346 1340 1334 1327 1320 1316 1312 1307